Weather observations for the past three days for
Huntsville, Huntsville Municipal Airport
Imperial (Metric)
Date Time (cdt) Wind (mph) Vis. (mi.) Weather Sky Cond. Temperature (ºF) Relative Humidity Wind Chill (°F) Heat Index (°F) Pressure Precipitation (in)
Air Dwpt 6 hour altimeter (in) sea level (mb) 1 hr 3 hr 6 hr
Max. Min.
12 10:53 Calm 10.00 Fair CLR 75.9 73.9 94% 75 30.12 1019.6
12 09:53 S 3 9.00 Mostly Cloudy BKN014 75.9 75 97% 75 30.11 1019.3
12 08:53 NE 3 4.00 Fog/Mist FEW120 77 75.9 96% 78 30.11 1019.1
12 07:53 SE 3 6.00 Fog/Mist CLR 75.9 75 97% 75 30.09 1018.4
12 06:53 Calm 5.00 Fog/Mist CLR 75 75 75 73.9 100% 72 30.06 1017.6
12 05:53 Calm 6.00 Fog/Mist CLR 75 75 100% 72 30.05 1017.0
12 04:53 Calm 6.00 Fog/Mist CLR 75 73.9 96% 73 30.04 1016.6
12 03:53 Calm 5.00 Fog/Mist CLR 73.9 73.9 100% 30.03 1016.3
12 02:53 Calm 7.00 Fair CLR 75 73.9 96% 73 30.02 1016.1
12 01:53 Calm 8.00 Fair CLR 75 73.9 96% 73 30.02 1016.1
12 00:53 Calm 8.00 Fair CLR 75 73.9 80.1 75 96% 73 30.03 1016.4
11 23:53 S 3 9.00 Fair CLR 75 73.9 96% 73 30.04 1016.5
11 22:53 Calm 10.00 Fair CLR 75 75 100% 72 30.04 1016.6
11 21:53 S 3 10.00 Fair CLR 75.9 73.9 94% 75 30.03 1016.2
11 20:53 S 6 10.00 Fair CLR 75.9 73.9 94% 75 30.01 1015.9
11 19:53 S 6 10.00 Fair CLR 75.9 73.9 94% 75 30.01 1015.8
11 18:53 S 13 10.00 Fair CLR 80.1 73 95 80.1 79% 84 30.01 1015.7
11 17:53 SE 12 10.00 Fair CLR 87.1 69.1 55% 91 30 1015.3
11 16:53 S 10 10.00 Partly Cloudy FEW060 SCT080 90 72 56% 97 30.01 1015.5
11 13:53 NE 8 10.00 A Few Clouds FEW050 93 66 41% 96 30.03 1016.3
11 12:53 Calm 10.00 A Few Clouds FEW046 91 70 91 72 50% 97 30.05 1017.0
11 11:53 Calm 10.00 Fair CLR 89.1 71.1 55% 95 30.06 1017.2
11 10:53 Vrbl 3 10.00 Fair CLR 87.1 73 63% 95 30.06 1017.3
11 09:53 N 6 10.00 NULL NULL 84 73.9 72% 91 30.06 1017.3
11 08:53 N 6 10.00 Fair CLR 77 73.9 90% 78 30.06 1017.3
11 07:53 NE 3 8.00 Fair CLR 75 73 94% 73 30.05 1016.9
11 06:53 Calm 7.00 Fair CLR 72 72 77 72 100% 30.03 1016.4
11 05:53 Calm 10.00 Fair CLR 73 72 96% 30.02 1016.1
11 04:53 Calm 10.00 Fair CLR 72 72 100% 30.02 1015.9
11 03:53 Calm 10.00 Fair CLR 72 72 100% 30.01 1015.6
11 02:53 Calm 10.00 Fair CLR 73 72 96% 30 1015.4
11 01:53 Calm 10.00 Fair CLR 75 71.1 88% 75 30.01 1015.5
11 00:53 Calm 10.00 Fair CLR 75 71.1 91 75 88% 75 30 1015.4
10 23:53 Calm 10.00 Fair CLR 78.1 71.1 79% 80 30 1015.4
10 22:53 Calm 10.00 Fair CLR 79 71.1 77% 82 30 1015.2
10 21:53 Calm 10.00 Fair CLR 80.1 71.1 74% 84 30 1015.2
10 20:53 Calm 10.00 Fair CLR 82.9 70 65% 87 30 1015.3
10 19:53 E 3 10.00 Fair CLR 88 68 52% 92 29.99 1015.1
10 18:53 E 6 10.00 Fair CLR 91 68 93.9 91 47% 95 29.99 1014.8
10 17:53 E 6 10.00 Fair CLR 91.9 64.9 41% 94 29.99 1014.9
10 16:53 E 7 10.00 A Few Clouds FEW065 91.9 66.9 44% 95 29.99 1014.9
10 15:53 E 8 G 20 10.00 Fair CLR 91.9 66.9 44% 95 29.99 1015.0
10 14:53 NE 10 10.00 Fair CLR 91.9 68 46% 96 30.01 1015.5
10 13:53 NE 7 10.00 Fair CLR 91.9 68 46% 96 30.02 1016.0
10 12:53 NE 9 10.00 Fair CLR 91 66.9 91 73 45% 94 30.03 1016.5
10 11:53 NE 8 10.00 Fair CLR 90 71.1 54% 96 30.04 1016.7
10 10:53 NE 7 10.00 Fair CLR 89.1 72 57% 96 30.04 1016.8
10 09:53 NE 5 10.00 Fair CLR 84.9 73 68% 92 30.04 1016.8
10 07:53 N 3 10.00 Fair CLR 75 71.1 88% 75 30.02 1016.0
10 06:53 Calm 10.00 Fair CLR 73.9 70 77 73 88% 30 1015.4
10 05:53 S 3 10.00 Fair CLR 73 70 90% 29.99 1015.1
10 04:53 Calm 10.00 Fair CLR 73 71.1 94% 29.99 1014.9
10 03:53 Calm 10.00 Fair CLR 73.9 72 94% 29.98 1014.8
10 02:53 Calm 10.00 Fair CLR 73.9 72 94% 29.99 1015.0
10 01:53 Calm 10.00 Fair CLR 75 72 90% 74 29.99 1014.9
10 00:53 Calm 10.00 Fair CLR 77 72 90 75 85% 78 29.99 1015.0
09 23:53 Calm 10.00 Fair CLR 78.1 72 82% 80 29.99 1015.0
09 20:53 Calm 10.00 Fair CLR 82 73.9 77% 88 29.95 1013.7
09 19:53 NE 3 10.00 Fair CLR 88 71.1 57% 94 29.94 1013.1
09 18:53 NE 3 10.00 Fair CLR 90 70 91.9 86 52% 95 29.92 1012.7
09 17:53 N 6 10.00 Fair CLR 91 70 50% 97 29.92 1012.7
09 15:53 N 9 10.00 A Few Clouds FEW047 91 72 54% 99 29.94 1013.1
09 14:53 Vrbl 5 10.00 A Few Clouds FEW046 89.1 71.1 55% 95 29.94 1013.3
09 13:53 N 3 10.00 Fair CLR 89.1 71.1 55% 95 29.96 1013.9
09 12:53 N 8 10.00 A Few Clouds FEW034 87.1 72 88 70 61% 94 29.98 1014.5
09 11:53 N 8 10.00 Fair CLR 86 72 63% 92 29.99 1015.1
Date Time (cdt) Wind (mph) Vis. (mi.) Weather Sky Cond. Air Dwpt Max. Min. Relative Humidity Wind Chill (°F) Heat Index (°F) altimeter (in) sea level (mb) 1 hr 3 hr 6 hr
6 hour
Temperature (ºF) Pressure Precipitation (in)